Hourly Data Report for January 22, 2019

TORONTO CITY
ONTARIO
Current Station Operator: ECCC - MSC

43°40'00.000" N
79°24'00.000" W
112.50 m
6158355
71508
XTO

Download Data

Hourly Data (January 2019)
Hourly Data Report for January 22, 2019
TIME
LST
Temp Definition
°C
Dew Point Definition
°C
Rel Hum Definition
%
Precip. Amount Definition
mm

Wind Dir Definition
10's deg

Wind Spd Definition
km/h
Visibility Definition
km
Stn Press Definition
kPa
Hmdx Definition


Wind Chill Definition


Weather Definition


00:00 -13.7 -18.0 70 0.0 LegendMM LegendMM   102.10     LegendNANA
01:00 -14.2 -18.0 73 0.0 LegendMM LegendMM   102.17     LegendNANA
02:00 -14.3 -17.6 76 0.0 LegendMM LegendMM   102.27     LegendNANA
03:00 -13.7 -17.2 75 0.0 LegendMM LegendMM   102.33     LegendNANA
04:00 -13.9 -17.7 73 0.0 LegendMM LegendMM   102.26     LegendNANA
05:00 -13.6 -17.0 76 0.0 LegendMM LegendMM   102.24     LegendNANA
06:00 -14.2 -17.4 77 0.0 LegendMM LegendMM   102.27     LegendNANA
07:00 -13.8 -16.8 78 0.0 LegendMM LegendMM   102.24     LegendNANA
08:00 -13.0 -15.9 79 0.0 LegendMM LegendMM   102.18     LegendNANA
09:00 -10.9 -14.1 77 0.0 LegendMM LegendMM   102.15     LegendNANA
10:00 -9.8 -13.2 76 0.0 LegendMM LegendMM   102.16     LegendNANA
11:00 -8.3 -11.9 75 0.0 LegendMM LegendMM   102.10     LegendNANA
12:00 -7.3 -11.5 72 0.0 LegendMM LegendMM   101.99     LegendNANA
13:00 -7.3 -11.5 72 0.0 LegendMM LegendMM   101.87     LegendNANA
14:00 -6.7 -11.0 71 0.0 LegendMM LegendMM   101.73     LegendNANA
15:00 -5.9 -11.1 67 0.0 LegendMM LegendMM   101.58     LegendNANA
16:00 -4.5 -10.2 65 0.0 LegendMM LegendMM   101.40     LegendNANA
17:00 -3.7 -10.0 61 0.0 LegendMM LegendMM   101.22     LegendNANA
18:00 -3.2 -9.8 60 0.0 LegendMM LegendMM   101.13     LegendNANA
19:00 -2.6 -9.5 59 0.0 LegendMM LegendMM   100.98     LegendNANA
20:00 -1.5 -9.7 54 0.0 LegendMM LegendMM   100.92     LegendNANA
21:00 -0.6 -10.0 49 0.0 LegendMM LegendMM   100.77     LegendNANA
22:00 -0.5 -9.1 52 0.0 LegendMM LegendMM   100.69     LegendNANA
23:00 0.0 -8.0 55 0.0 LegendMM LegendMM   100.62     LegendNANA

Notes on Data Quality.

Legend

  • E = Estimated
  • M = Missing
  • NA = Not Available*
  • [empty] = Indicates an unobserved value
Date modified: